Погода в Киевском

Россия / Томская область     59°46′03″N   80°23′54″E
темп.,
°C
ветер,
м/с
пор.,
м/с
влажн.,
%
обл.,
%
осадки,
мм/ч
давл.,
гПа
погр.,
м
9 мая, вс
вс901:00+1ссз288898 0.0 1020219
04:00+1ссз269291 0.0 1021152
07:00+1с25875 0.0 1023163
10:00+7ссв246328 0.0 1023939
13:00+8св335387 0.0 10241372
16:00+11св334433 0.0 10251575
19:00+10всв445015 0.0 10251189
22:00+6в12655 0.0 102715
10 мая, пн
пн1001:00+4всв227546 0.0 102728
04:00+3всв2282100 0.0 102821
07:00+3св2479100 0.0 1029121
10:00+8св23565 0.0 1029808
13:00+9ссв3450100 0.0 10291578
16:00+9ссв345292 0.0 10291427
19:00+9св344817 0.0 10281301
22:00+6ссв26655 0.0 1028110
11 мая, вт
вт1101:00+4св257874 0.0 1028110
04:00+2св258490 0.0 102894
07:00+3ссв267886 0.0 1029203
10:00+8ссв355791 0.0 1028909
13:00+12ссв35414 0.0 10271319
16:00+14ссв35335 0.0 10261576
19:00+14св34331 0.0 10251570
22:00+9всв11506 0.0 102510
12 мая, ср
ср1201:00+6юв22630 0.0 102521
04:00+4ююв22730 0.0 102537
07:00+5ююв25720 0.0 1025146
10:00+11ю34470 0.0 1024600
13:00+15ю22351 0.0 10221280
16:00+17ю22300 0.0 10211730
19:00+17ю22315 0.0 10201872
22:00+12ююв25495 0.0 102190
13 мая, чт
чт1301:00+11ююз255197 0.0 1021135
04:00+10зюз1264100 0.0 102145
07:00+9сз2582100 0.0 1021233
10:00+12з3666100 0.0 1020625
13:00+16з5751100 0.0 10181481
16:00+16з6926100 0.0 10151635
19:00+10з51185100 3.3 1015885
22:00+8ссз5118016 0.3 1017949